User: anonymous   Login
Location: Unspecified
(0.0000°N, 0.0000°E)
Time: 14:45:35
(UTC+00:00)
Language:

PROITERES - Orbit

View from above orbital plane
View from above orbital plane
View from above satellite
View from above satellite

Ground track
Ground track

The orbit data is extracted from the following two-line orbital elements,

1 38756U 12047B   17202.81762554 +.00000142 +00000-0 +28260-4 0  9992
2 38756 098.2749 328.3008 0012612 017.3467 342.8150 14.76372730261950
Epoch (UTC): 21 July 2017 19:37:22
Eccentricity: 0.0012612
inclination: 98.2749°
perigee height: 632 km
apogee height: 649 km
right ascension of ascending node: 328.3008°
argument of perigee: 17.3467°
revolutions per day: 14.76372730
mean anomaly at epoch: 342.8150°
orbit number at epoch: 26195

The dashed part of the orbit path shows where the satellite is in the earth's shadow,  

DLR